📊 Raw Sensor Data

Showing records 33826 to 33850 of 84,804 total

ID Distance (ft) Battery V Battery A Int Temp (°F) Int Humid (%) Ext Temp (°F) Solar V RSSI SNR Time Stamp
50991 15.0 3.87 -5 63 45 64 0.00 -71 7 09/04/2025 12:45 AM
50990 15.0 3.87 -5 63 45 64 0.00 -71 8 09/04/2025 12:30 AM
50989 15.0 3.87 -5 64 45 65 0.10 -71 8 09/04/2025 12:15 AM
50988 15.0 3.87 -5 64 45 65 0.00 -71 8 09/04/2025 12:00 AM
50987 15.0 3.93 -5 65 45 66 0.00 -71 7 09/03/2025 11:45 PM
50986 15.0 3.87 -5 65 45 66 0.00 -71 8 09/03/2025 11:30 PM
50985 15.0 3.87 -5 65 45 66 0.00 -71 8 09/03/2025 11:15 PM
50984 15.0 3.87 -5 65 45 66 0.00 -72 7 09/03/2025 11:00 PM
50983 15.0 3.93 -5 65 46 66 0.00 -70 8 09/03/2025 10:45 PM
50982 15.0 3.87 -5 66 46 67 0.00 -71 8 09/03/2025 10:30 PM
50981 15.0 3.87 -5 66 46 67 0.00 -70 8 09/03/2025 10:15 PM
50980 15.0 3.87 -5 67 47 68 0.00 -71 8 09/03/2025 10:00 PM
50979 15.0 3.93 -5 68 47 69 0.10 -71 7 09/03/2025 09:45 PM
50978 15.0 3.88 -5 69 47 70 0.00 -72 7 09/03/2025 09:30 PM
50977 15.0 3.88 -5 70 48 70 0.00 -72 7 09/03/2025 09:15 PM
50976 15.3 3.93 -5 71 48 71 0.00 -72 8 09/03/2025 09:00 PM
50975 15.0 3.88 -5 72 49 72 0.00 -73 8 09/03/2025 08:45 PM
50974 15.0 3.93 -5 73 50 73 0.00 -72 8 09/03/2025 08:30 PM
50973 15.0 3.88 -5 74 52 73 0.00 -71 8 09/03/2025 08:15 PM
50972 15.0 3.94 -5 76 54 73 0.00 -72 7 09/03/2025 08:00 PM
50971 15.1 3.88 -5 79 55 75 0.60 -71 8 09/03/2025 07:45 PM
50970 15.1 3.87 -10 84 54 78 3.20 -72 7 09/03/2025 07:30 PM
50969 15.1 3.95 0 90 51 86 4.50 -71 8 09/03/2025 07:15 PM
50968 15.1 3.97 7 92 51 88 4.50 -72 8 09/03/2025 07:00 PM
50967 15.1 3.94 0 94 51 88 4.50 -72 8 09/03/2025 06:45 PM